Date String (YYYY-MM-DD hh:mm:ss) UTC,Instrument flags,absolute air pressure of the measurement (hPa),sample flow rate (lpm),inlet stack bypass flow (lpm),air temperature of the measurement (°C),ambient temperature measured by the external sensor (°C),aerosol sample conditioner tube jacket temperature (°C),OPC LED temperature (°C),internal box temperature (°C),relative humidity of the measurement (%),span deviation,mass concentration of particles derived from Lorenz-Mie calculation of OPC scattering (μg/m³),mass concentration of particles derived from Lorenz-Mie calculation of OPC scattering (μg/m³),mass concentration of particles derived from Lorenz-Mie calculation of OPC scattering (μg/m³)
DateTimeUTC,F1_M11,P_M11,Q1_M11,Q2_M11,T1_M11,T2_M11,T3_M11,T4_M11,T5_M11,U1_M11,ZSPAN_M11,X0_M11,X2_M11,X1_M11
2024-01-27 15:00:00,SystemResetWarning,0836.4,5.00,000.00,018.9,018.2,000.0,027.2,020.3,11.8,0000.0,0001.80,0001.70,0001.62
2024-01-27 15:01:00,SystemResetWarning,0836.4,5.00,000.00,018.9,018.2,000.0,027.2,020.3,11.8,0000.0,0001.85,0001.73,0001.63
2024-01-27 15:02:00,SystemResetWarning,0836.4,5.00,000.00,018.9,018.2,000.0,027.2,020.3,11.7,0000.0,0001.92,0001.77,0001.66
2024-01-27 15:03:00,SystemResetWarning,0836.4,5.00,000.00,018.9,018.2,000.0,027.2,020.3,11.7,0000.0,0002.02,0001.79,0001.67
2024-01-27 15:04:00,SystemResetWarning,0836.4,5.00,000.00,019.0,018.2,000.0,027.2,020.4,11.8,0000.0,0002.01,0001.79,0001.69
2024-01-27 15:05:00,SystemResetWarning,0836.4,5.00,000.00,019.0,018.2,000.0,027.2,020.3,12.1,0000.0,0002.04,0001.82,0001.71
2024-01-27 15:06:00,SystemResetWarning,0836.4,5.01,000.00,019.0,018.3,000.0,027.2,020.3,12.7,0000.0,0002.15,0001.86,0001.72
2024-01-27 15:07:00,SystemResetWarning,0836.4,5.00,000.00,019.0,018.3,000.0,027.2,020.3,12.6,0000.0,0002.22,0001.89,0001.74
2024-01-27 15:08:00,SystemResetWarning,0836.4,5.00,000.00,019.0,018.3,000.0,027.3,020.4,12.5,0000.0,0002.28,0001.91,0001.75
2024-01-27 15:09:00,SystemResetWarning,0836.4,5.01,000.00,019.0,018.3,000.0,027.3,020.4,12.5,0000.0,0002.31,0001.93,0001.76
2024-01-27 15:10:00,SystemResetWarning,0836.5,5.00,000.00,019.0,018.3,000.0,027.3,020.4,13.0,0000.0,0002.31,0001.94,0001.78
2024-01-27 15:11:00,SystemResetWarning,0836.5,5.00,000.00,019.0,018.3,000.0,027.3,020.4,13.2,0000.0,0002.36,0001.97,0001.80
2024-01-27 15:12:00,SystemResetWarning,0836.6,5.00,000.00,019.0,018.3,000.0,027.3,020.4,12.9,0000.0,0002.35,0001.97,0001.80
2024-01-27 15:13:00,SystemResetWarning,0836.6,5.00,000.00,019.0,018.4,000.0,027.3,020.4,12.7,0000.0,0002.29,0001.95,0001.81
2024-01-27 15:14:00,SystemResetWarning,0836.6,5.01,000.00,019.0,018.4,000.0,027.3,020.4,12.8,0000.0,0002.27,0001.98,0001.83
2024-01-27 15:15:00,SystemResetWarning,0836.7,5.00,000.00,019.1,018.4,000.0,027.3,020.4,13.0,0000.0,0002.27,0001.99,0001.83
2024-01-27 15:16:00,SystemResetWarning,0836.6,4.99,000.00,019.1,018.4,000.0,027.3,020.5,13.0,0000.0,0002.28,0001.98,0001.83
2024-01-27 15:17:00,SystemResetWarning,0836.6,4.99,000.00,019.1,018.4,000.0,027.3,020.5,13.3,0000.0,0002.23,0001.98,0001.84
2024-01-27 15:18:00,SystemResetWarning,0836.6,5.00,000.00,019.1,018.4,000.0,027.3,020.5,13.5,0000.0,0002.19,0001.96,0001.84
2024-01-27 15:19:00,SystemResetWarning,0836.6,5.00,000.00,019.1,018.4,000.0,027.3,020.5,12.9,0000.0,0002.14,0001.96,0001.84
2024-01-27 15:20:00,SystemResetWarning,0836.6,5.00,000.00,019.1,018.4,000.0,027.3,020.5,12.5,0000.0,0002.12,0001.95,0001.85
2024-01-27 15:21:00,SystemResetWarning,0836.6,5.01,000.00,019.1,018.5,000.0,027.4,020.5,13.0,0000.0,0002.22,0001.97,0001.85
2024-01-27 15:22:00,SystemResetWarning,0836.6,5.00,000.00,019.1,018.5,000.0,027.4,020.6,12.8,0000.0,0002.23,0001.97,0001.85
2024-01-27 15:23:00,SystemResetWarning,0836.6,5.00,000.00,019.1,018.5,000.0,027.4,020.6,12.6,0000.0,0002.22,0001.95,0001.84
2024-01-27 15:24:00,SystemResetWarning,0836.6,5.00,000.00,019.2,018.5,000.0,027.4,020.6,12.3,0000.0,0002.35,0001.97,0001.84
2024-01-27 15:25:00,SystemResetWarning,0836.6,5.00,000.00,019.2,018.5,000.0,027.4,020.6,12.4,0000.0,0002.41,0001.99,0001.83
2024-01-27 15:26:00,SystemResetWarning,0836.6,5.00,000.00,019.2,018.5,000.0,027.4,020.6,12.4,0000.0,0002.46,0001.99,0001.82
2024-01-27 15:27:00,SystemResetWarning,0836.6,5.00,000.00,019.2,018.5,000.0,027.4,020.6,12.3,0000.0,0002.50,0002.00,0001.82
2024-01-27 15:28:00,SystemResetWarning,0836.6,5.00,000.00,019.2,018.6,000.0,027.4,020.6,12.6,0000.0,0003.42,0002.00,0001.80
2024-01-27 15:29:00,SystemResetWarning,0836.6,5.00,000.00,019.2,018.6,000.0,027.4,020.7,12.5,0000.0,0004.20,0001.99,0001.78
2024-01-27 15:30:00,SystemResetWarning,0836.6,5.00,000.00,019.2,018.6,000.0,027.4,020.7,12.4,0000.0,0004.23,0001.97,0001.77
2024-01-27 15:31:00,SystemResetWarning,0836.8,4.99,000.00,019.2,018.6,000.0,027.5,020.6,12.1,0000.0,0004.23,0001.97,0001.77
2024-01-27 15:32:00,SystemResetWarning,0836.8,4.99,000.00,019.2,018.6,000.0,027.5,020.7,12.4,0000.0,0004.18,0001.98,0001.77
2024-01-27 15:33:00,SystemResetWarning,0836.8,4.99,000.00,019.2,018.6,000.0,027.5,020.7,12.6,0000.0,0004.19,0001.99,0001.79
2024-01-27 15:34:00,SystemResetWarning,0836.8,5.00,000.00,019.2,018.6,000.0,027.5,020.7,12.8,0000.0,0004.17,0001.99,0001.79
2024-01-27 15:35:00,SystemResetWarning,0836.8,5.00,000.00,019.3,018.7,000.0,027.5,020.7,12.7,0000.0,0004.06,0001.99,0001.81
2024-01-27 15:36:00,SystemResetWarning,0836.9,5.00,000.00,019.3,018.7,000.0,027.5,020.7,12.7,0000.0,0004.10,0002.01,0001.82
2024-01-27 15:37:00,SystemResetWarning,0836.8,5.00,000.00,019.3,018.7,000.0,027.5,020.7,12.3,0000.0,0004.06,0002.03,0001.83
2024-01-27 15:38:00,SystemResetWarning,0836.8,5.00,000.00,019.3,018.7,000.0,027.5,020.7,12.0,0000.0,0004.31,0002.06,0001.83
2024-01-27 15:39:00,SystemResetWarning,0836.8,5.01,000.00,019.3,018.7,000.0,027.5,020.8,12.5,0000.0,0005.37,0002.06,0001.83
2024-01-27 15:40:00,SystemResetWarning,0836.8,5.00,000.00,019.3,018.7,000.0,027.5,020.8,12.8,0000.0,0004.69,0002.09,0001.85
2024-01-27 15:41:00,SystemResetWarning,0836.8,5.00,000.00,019.3,018.7,000.0,027.6,020.8,12.7,0000.0,0004.65,0002.12,0001.87
2024-01-27 15:42:00,SystemResetWarning,0836.8,5.00,000.00,019.3,018.7,000.0,027.6,020.8,12.5,0000.0,0004.69,0002.14,0001.87
2024-01-27 15:43:00,SystemResetWarning,0836.8,5.00,000.00,019.4,018.8,000.0,027.6,020.8,12.9,0000.0,0004.66,0002.13,0001.88
2024-01-27 15:44:00,SystemResetWarning,0836.8,5.00,000.00,019.4,018.8,000.0,027.6,020.8,12.7,0000.0,0004.64,0002.12,0001.87
2024-01-27 15:45:00,SystemResetWarning,0836.9,5.00,000.00,019.4,018.8,000.0,027.6,020.8,13.0,0000.0,0004.65,0002.11,0001.86
2024-01-27 15:46:00,SystemResetWarning,0837.0,5.00,000.00,019.4,018.8,000.0,027.6,020.8,13.1,0000.0,0004.76,0002.12,0001.86
2024-01-27 15:47:00,SystemResetWarning,0837.0,5.00,000.00,019.4,018.8,000.0,027.6,020.9,13.8,0000.0,0005.03,0002.09,0001.85
2024-01-27 15:48:00,SystemResetWarning,0837.0,5.01,000.00,019.4,018.8,000.0,027.6,020.9,13.2,0000.0,0004.98,0002.06,0001.84
2024-01-27 15:49:00,SystemResetWarning,0836.9,5.00,000.00,019.4,018.8,000.0,027.6,020.9,13.3,0000.0,0004.73,0001.99,0001.82
2024-01-27 15:50:00,SystemResetWarning,0836.9,5.00,000.00,019.4,018.9,000.0,027.7,020.9,13.7,0000.0,0003.33,0001.96,0001.81
2024-01-27 15:51:00,SystemResetWarning,0836.9,5.00,000.00,019.5,018.9,000.0,027.7,020.9,14.2,0000.0,0002.56,0001.92,0001.79
2024-01-27 15:52:00,SystemResetWarning,0837.0,4.99,000.00,019.5,018.9,000.0,027.7,020.9,14.6,0000.0,0002.55,0001.88,0001.77
2024-01-27 15:53:00,SystemResetWarning,0837.0,5.00,000.00,019.5,018.9,000.0,027.7,020.9,14.3,0000.0,0002.63,0001.88,0001.75
2024-01-27 15:54:00,SystemResetWarning,0836.9,5.01,000.00,019.5,018.9,000.0,027.7,020.9,14.9,0000.0,0002.77,0001.91,0001.73
2024-01-27 15:55:00,SystemResetWarning,0836.9,5.01,000.00,019.5,018.9,000.0,027.7,020.9,15.0,0000.0,0002.86,0001.88,0001.71
2024-01-27 15:56:00,SystemResetWarning,0837.0,5.00,000.00,019.5,018.9,000.0,027.7,021.0,14.9,0000.0,0003.28,0001.88,0001.71
2024-01-27 15:57:00,SystemResetWarning,0836.9,5.00,000.00,019.5,019.0,000.0,027.7,021.0,14.8,0000.0,0003.17,0001.87,0001.70
2024-01-27 15:58:00,SystemResetWarning,0836.9,4.99,000.00,019.5,019.0,000.0,027.8,021.0,15.4,0000.0,0002.95,0001.87,0001.69
2024-01-27 15:59:00,SystemResetWarning,0837.0,5.00,000.00,019.6,019.0,000.0,027.8,021.0,15.5,0000.0,0002.91,0001.85,0001.68
